• In Deutschland
  • Länderverzeichnis
  • Für 7 Tage
  • Wassertemperatur
  • Satellitenkarten
  • Wetterkarte
  • Widgets
  • user-avatar
    Anmelden

    Stündliche Wetter Graz

    Heute, 27 Juni, Dienstag

    Zeit Temperatur Niederschläge Wind Luftdruck Luftfeuchtigkeit
    00:00 +16°C° 0 mm 1 m/S 721 mmHg 92%
    01:00 +16°C° 0 mm 1 m/S 721 mmHg 93%
    02:00 +15°C° 0 mm 1 m/S 721 mmHg 93%
    03:00 +15°C° 0 mm 1 m/S 721 mmHg 93%
    04:00 +15°C° 0 mm 1 m/S 720 mmHg 93%
    05:00 +19°C° 0 mm 1 m/S 721 mmHg 87%
    06:00 +21°C° 0 mm 1 m/S 721 mmHg 81%
    07:00 +23°C° 0 mm 1 m/S 721 mmHg 74%
    08:00 +25°C° 0 mm 1 m/S 721 mmHg 67%
    09:00 +27°C° 0 mm 2 m/S 721 mmHg 59%
    10:00 +28°C° 0 mm 2 m/S 721 mmHg 52%
    11:00 +29°C° 0 mm 3 m/S 721 mmHg 50%
    12:00 +30°C° 0 mm 3 m/S 721 mmHg 48%
    13:00 +30°C° 0 mm 3 m/S 720 mmHg 46%
    14:00 +30°C° 0,5 mm 3 m/S 720 mmHg 53%
    15:00 +29°C° 0,5 mm 3 m/S 720 mmHg 60%
    16:00 +28°C° 0,5 mm 3 m/S 720 mmHg 66%
    17:00 +27°C° 0,1 mm 2 m/S 719 mmHg 71%
    18:00 +25°C° 0,1 mm 2 m/S 719 mmHg 75%
    19:00 +24°C° 0,1 mm 1 m/S 718 mmHg 80%
    20:00 +22°C° 0 mm 1 m/S 718 mmHg 83%
    21:00 +21°C° 0 mm 1 m/S 718 mmHg 87%
    22:00 +19°C° 0 mm 1 m/S 718 mmHg 91%
    23:00 +19°C° 0 mm 1 m/S 718 mmHg 91%

    Morgen, 28 Juni, Mittwoch

    Zeit Temperatur Niederschläge Wind Luftdruck Luftfeuchtigkeit
    00:00 +18°C° 0 mm 1 m/S 718 mmHg 91%
    01:00 +18°C° 0 mm 1 m/S 718 mmHg 91%
    02:00 +18°C° 0 mm 1 m/S 717 mmHg 92%
    03:00 +18°C° 0 mm 1 m/S 717 mmHg 92%
    04:00 +16°C° 0 mm 1 m/S 717 mmHg 92%
    05:00 +19°C° 0 mm 1 m/S 717 mmHg 87%
    06:00 +20°C° 0 mm 2 m/S 717 mmHg 81%
    07:00 +23°C° 0 mm 2 m/S 717 mmHg 76%
    08:00 +25°C° 0 mm 3 m/S 716 mmHg 70%
    09:00 +26°C° 0 mm 3 m/S 716 mmHg 64%
    10:00 +28°C° 0 mm 4 m/S 716 mmHg 58%
    11:00 +29°C° 0 mm 4 m/S 716 mmHg 55%
    12:00 +30°C° 0 mm 5 m/S 715 mmHg 51%
    13:00 +32°C° 0 mm 5 m/S 715 mmHg 48%
    14:00 +30°C° 0,3 mm 5 m/S 714 mmHg 52%
    15:00 +29°C° 0,3 mm 6 m/S 714 mmHg 56%
    16:00 +29°C° 0,3 mm 6 m/S 714 mmHg 60%
    17:00 +27°C° 0,1 mm 5 m/S 714 mmHg 67%
    18:00 +26°C° 0,1 mm 3 m/S 713 mmHg 74%
    19:00 +24°C° 0,1 mm 2 m/S 713 mmHg 81%
    20:00 +23°C° 1,2 mm 2 m/S 713 mmHg 85%
    21:00 +21°C° 1,2 mm 3 m/S 712 mmHg 89%
    22:00 +20°C° 1,2 mm 3 m/S 712 mmHg 94%
    23:00 +20°C° 0,2 mm 3 m/S 712 mmHg 94%

    übermorgen, 29 Juni, Donnerstag

    Zeit Temperatur Niederschläge Wind Luftdruck Luftfeuchtigkeit
    00:00 +19°C° 0,2 mm 3 m/S 711 mmHg 95%
    01:00 +19°C° 0,2 mm 3 m/S 711 mmHg 96%
    02:00 +19°C° 0 mm 3 m/S 711 mmHg 96%
    03:00 +18°C° 0 mm 3 m/S 710 mmHg 96%
    04:00 +18°C° 0 mm 2 m/S 710 mmHg 96%
    05:00 +18°C° 0 mm 3 m/S 710 mmHg 93%
    06:00 +19°C° 0 mm 3 m/S 711 mmHg 90%
    07:00 +20°C° 0 mm 3 m/S 711 mmHg 87%
    08:00 +21°C° 0 mm 4 m/S 711 mmHg 77%
    09:00 +23°C° 0 mm 4 m/S 712 mmHg 67%
    10:00 +25°C° 0 mm 5 m/S 712 mmHg 57%
    11:00 +26°C° 0,3 mm 5 m/S 713 mmHg 57%
    12:00 +26°C° 0,3 mm 5 m/S 713 mmHg 57%
    13:00 +26°C° 0,3 mm 5 m/S 713 mmHg 58%
    14:00 +26°C° 0,3 mm 5 m/S 714 mmHg 57%
    15:00 +26°C° 0,3 mm 5 m/S 714 mmHg 57%
    16:00 +26°C° 0,3 mm 5 m/S 714 mmHg 57%
    17:00 +25°C° 0,1 mm 4 m/S 714 mmHg 62%
    18:00 +22°C° 0,1 mm 3 m/S 715 mmHg 67%
    19:00 +21°C° 0,1 mm 3 m/S 715 mmHg 72%
    20:00 +19°C° 0 mm 2 m/S 715 mmHg 77%
    21:00 +18°C° 0 mm 2 m/S 716 mmHg 83%
    22:00 +16°C° 0 mm 2 m/S 716 mmHg 88%
    23:00 +15°C° 0 mm 1 m/S 717 mmHg 89%

    30 Juni, Freitag

    Zeit Temperatur Niederschläge Wind Luftdruck Luftfeuchtigkeit
    00:00 +15°C° 0 mm 1 m/S 717 mmHg 90%
    01:00 +15°C° 0 mm 1 m/S 717 mmHg 90%
    02:00 +14°C° 0 mm 1 m/S 718 mmHg 91%
    03:00 +13°C° 0 mm 1 m/S 718 mmHg 92%
    04:00 +13°C° 0 mm 1 m/S 718 mmHg 92%
    05:00 +14°C° 0 mm 1 m/S 718 mmHg 87%
    06:00 +16°C° 0 mm 1 m/S 719 mmHg 82%
    07:00 +19°C° 0 mm 1 m/S 719 mmHg 76%
    08:00 +21°C° 0,1 mm 1 m/S 720 mmHg 71%
    09:00 +21°C° 0,1 mm 2 m/S 720 mmHg 65%
    10:00 +24°C° 0,1 mm 2 m/S 720 mmHg 59%
    11:00 +25°C° 0,1 mm 3 m/S 720 mmHg 55%
    12:00 +26°C° 0,1 mm 4 m/S 720 mmHg 52%
    13:00 +27°C° 0,1 mm 4 m/S 720 mmHg 48%
    14:00 +27°C° 0,1 mm 5 m/S 720 mmHg 46%
    15:00 +27°C° 0,1 mm 5 m/S 720 mmHg 44%
    16:00 +27°C° 0,1 mm 5 m/S 719 mmHg 42%
    17:00 +25°C° 0 mm 5 m/S 719 mmHg 49%
    18:00 +22°C° 0 mm 4 m/S 719 mmHg 57%
    19:00 +21°C° 0 mm 3 m/S 719 mmHg 64%
    20:00 +19°C° 0 mm 3 m/S 720 mmHg 69%
    21:00 +18°C° 0 mm 2 m/S 720 mmHg 74%
    22:00 +17°C° 0 mm 2 m/S 720 mmHg 78%
    23:00 +16°C° 0 mm 2 m/S 720 mmHg 80%

    1 Juli, Samstag

    Zeit Temperatur Niederschläge Wind Luftdruck Luftfeuchtigkeit
    00:00 +16°C° 0 mm 2 m/S 720 mmHg 82%
    01:00 +16°C° 0 mm 1 m/S 720 mmHg 85%
    02:00 +15°C° 0 mm 1 m/S 720 mmHg 86%
    03:00 +15°C° 0 mm 1 m/S 720 mmHg 87%
    04:00 +15°C° 0 mm 1 m/S 720 mmHg 88%
    05:00 +16°C° 0,1 mm 1 m/S 720 mmHg 84%
    06:00 +18°C° 0,1 mm 1 m/S 721 mmHg 79%
    07:00 +20°C° 0,1 mm 1 m/S 721 mmHg 75%
    08:00 +21°C° 0,4 mm 1 m/S 721 mmHg 70%
    09:00 +22°C° 0,4 mm 1 m/S 721 mmHg 66%
    10:00 +24°C° 0,4 mm 1 m/S 721 mmHg 62%
    11:00 +24°C° 0,5 mm 1 m/S 721 mmHg 60%
    12:00 +25°C° 0,5 mm 1 m/S 721 mmHg 58%
    13:00 +25°C° 0,5 mm 1 m/S 721 mmHg 56%
    14:00 +25°C° 0,6 mm 1 m/S 721 mmHg 56%
    15:00 +25°C° 0,6 mm 1 m/S 721 mmHg 57%
    16:00 +25°C° 0,6 mm 1 m/S 721 mmHg 58%
    17:00 +24°C° 0,7 mm 1 m/S 721 mmHg 66%
    18:00 +22°C° 0,7 mm 1 m/S 721 mmHg 74%
    19:00 +21°C° 0,7 mm 1 m/S 721 mmHg 82%
    20:00 +19°C° 0,2 mm 1 m/S 721 mmHg 84%
    21:00 +18°C° 0,2 mm 1 m/S 722 mmHg 87%
    22:00 +15°C° 0,2 mm 2 m/S 722 mmHg 89%
    23:00 +15°C° 0,1 mm 2 m/S 722 mmHg 90%

    2 Juli, Sonntag

    Zeit Temperatur Niederschläge Wind Luftdruck Luftfeuchtigkeit
    00:00 +14°C° 0,1 mm 2 m/S 722 mmHg 91%
    01:00 +14°C° 0,1 mm 1 m/S 722 mmHg 91%
    02:00 +13°C° 0 mm 1 m/S 723 mmHg 91%
    03:00 +13°C° 0 mm 1 m/S 723 mmHg 92%
    04:00 +13°C° 0 mm 1 m/S 723 mmHg 92%
    05:00 +14°C° 0 mm 1 m/S 723 mmHg 88%
    06:00 +16°C° 0 mm 1 m/S 724 mmHg 84%
    07:00 +19°C° 0 mm 1 m/S 724 mmHg 79%
    08:00 +20°C° 0,2 mm 1 m/S 724 mmHg 74%
    09:00 +21°C° 0,2 mm 1 m/S 725 mmHg 68%
    10:00 +22°C° 0,2 mm 1 m/S 725 mmHg 63%
    11:00 +23°C° 0,3 mm 1 m/S 725 mmHg 62%
    12:00 +23°C° 0,3 mm 1 m/S 725 mmHg 61%
    13:00 +23°C° 0,3 mm 1 m/S 725 mmHg 61%
    14:00 +23°C° 0,3 mm 1 m/S 725 mmHg 61%
    15:00 +23°C° 0,3 mm 1 m/S 724 mmHg 61%
    16:00 +23°C° 0,3 mm 1 m/S 724 mmHg 62%
    17:00 +22°C° 0,1 mm 1 m/S 724 mmHg 68%
    18:00 +21°C° 0,1 mm 1 m/S 724 mmHg 75%
    19:00 +20°C° 0,1 mm 1 m/S 724 mmHg 81%
    20:00 +18°C° 0,1 mm 1 m/S 724 mmHg 85%
    21:00 +15°C° 0,1 mm 1 m/S 724 mmHg 89%
    22:00 +13°C° 0,1 mm 1 m/S 725 mmHg 93%
    23:00 +13°C° 0 mm 1 m/S 724 mmHg 93%
    Mehr zeigen